Home   Weather   Passau   Past weeks

Flag for Germany Past Weather in Passau, Bavaria, Germany — Yesterday and Last 2 Weeks

Now
37 °F

Chilly.


Feels Like: 37 °F
Forecast: 40 / 46 °F
Wind: 2 mph from Northeast

Location: Rohrbach

Current Time: Apr 27, 2017 at 8:59:39 pm

Latest Report: Apr 27, 2017 at 8:00 pm


Visibility: N/A

Pressure: 29.96 "Hg

Humidity: 90%

Dew Point: 34 °F

Location of PassauLocation

Past Weather in Passau — Graph

°F

Passau Temperature Yesterday

Maximum temperature yesterday: 46 °F (at 12:00 am)
Minimum temperature yesterday: 38 °F (at 11:00 pm)
Average temperature yesterday: 41 °F

High & Low Weather Summary for the Past Weeks

 TemperatureHumidityPressure
High58 °F (Apr 25, 3:00 pm)96% (Apr 27, 6:00 am)30.58 "Hg (Apr 27, 6:00 am)
Low24 °F (Apr 21, 6:00 am)39% (Apr 21, 4:00 pm)29.72 "Hg (Apr 25, 3:00 pm)
Average41 °F74%30.09 "Hg
* Reported Apr 12 7:00 pm — Apr 27 7:00 pm, Passau, Weather by CustomWeather, © 2017

Note: Actual official high and low records may vary slightly from our data, if they occured in-between our weather recording intervals... More about our weather records

Advertising

Passau Weather History for the Previous 24 Hours

Scroll right to see more
 ConditionsComfort  
Time TempWeatherWind HumidityBarometerVisibility
7:00 pm
Thu, Apr 27
38 °FFog.1 mph88%29.96 "HgN/A
6:00 pm39 °FSprinkles. Cloudy.1 mph86%29.96 "HgN/A
5:00 pm40 °FChilly.2 mph85%29.96 "HgN/A
4:00 pm40 °FSprinkles. Cloudy.1 mph83%29.97 "HgN/A
3:00 pm40 °FSprinkles. Cloudy.2 mph86%29.96 "HgN/A
2:00 pm40 °FQuite cool.2 mph84%29.96 "HgN/A
1:00 pm40 °FFog.1 mph82%29.96 "Hg1 mi
12:00 pm39 °FChilly.2 mph86%29.96 "HgN/A
11:00 am40 °FChilly.1 mph85%29.96 "HgN/A
10:00 am38 °FFog.1 mph89%29.95 "HgN/A
9:00 am37 °FFog.1 mph92%29.95 "HgN/A
8:00 am35 °FChilly.1 mph96%29.93 "HgN/A
7:00 am34 °FFog.1 mph96%29.93 "HgN/A
6:00 am34 °FFog.No wind96%29.92 "HgN/A
5:00 am34 °FChilly.1 mph95%29.90 "HgN/A
4:00 am35 °FFog.1 mph93%29.90 "HgN/A
3:00 am35 °FFog.1 mph93%29.90 "HgN/A
2:00 am35 °FChilly.3 mph92%29.91 "HgN/A
1:00 am36 °FFog.3 mph92%29.93 "HgN/A
12:00 am37 °FFog.3 mph92%29.92 "HgN/A
11:00 pm
Wed, Apr 26
38 °FChilly.2 mph91%29.91 "HgN/A
10:00 pm38 °FSprinkles. Overcast.1 mph90%29.91 "HgN/A
9:00 pm38 °FFog.2 mph90%29.89 "HgN/A
8:00 pm39 °FPassing clouds.13 mph89%29.89 "Hg9 mi
Weather by CustomWeather, © 2017

See weather overviewHow to use our weather pages